Location: Härggis
(46.9540°N, 8.4897°E)
Time: 02:39:20
(UTC+00:00)

Cosmos 1674 Rocket - Pass Details

Date: 27 May 2022
Orbit: 602 x 629 km, 82.5° (Epoch: 26 June)

Event Time Altitude Azimuth Distance (km) Brightness Sun altitude
Exits shadow 00:23:10 35° 253° (WSW) 983 4.3 -20.5°
Maximum altitude 00:24:06 40° 285° (WNW) 899 4.3 -20.4°
Drops below altitude 10° 00:28:12 10° 355° (N) 1,962 7.1 -20.2°
Sets 00:30:32 0° 3° (N) 2,869 8.4 -20.1°
